{"data":{"norad_id":59546,"epoch":"2026-09-21T11:45:49.169952Z","epoch_age_seconds":82637,"freshness":"FRESH","line1":"1 59546U 24074N   26264.49015243  .00000194  00000+0  16554-4 0  9992","line2":"2 59546  43.0017 317.3897 0001097 268.8805  91.1921 15.27578076135963","mean_motion":15.27578076,"eccentricity":0.0001097,"inclination_deg":43.0017,"raan_deg":317.3897,"arg_perigee_deg":268.8805,"mean_anomaly_deg":91.1921,"bstar":1.6554e-5,"rev_number":13596,"period_min":94.266867443573,"perigee_km":482.30218444712,"apogee_km":483.80752994059,"semimajor_km":6861.1918571939,"source":"CELESTRAK","updated_at":"2026-09-22T09:00:48.973588Z"}}